Location: Rodanthe
(35.5920°N, 75.4670°W)
Time: 16:26:08
(UTC-04:00)

ISS - All Passes

Search period start: 20 August 2014 00:00
Search period end: 30 August 2014 00:00
Orbit: 413 x 419 km, 51.6° (Epoch: 20 August)

Date Brightness Start Highest point End Pass type
(mag) Time Alt. Az. Time Alt. Az. Time Alt. Az.
20 Aug - 13:51:34 10° S 13:54:22 25° SE 13:57:10 10° ENE daylight
20 Aug - 15:28:08 10° W 15:31:02 27° NW 15:33:56 10° NNE daylight
20 Aug - 20:23:14 10° N 20:25:02 14° NNE 20:26:50 10° ENE visible
20 Aug - 21:58:49 10° NW 22:02:09 83° SW 22:05:29 10° SE visible
21 Aug - 13:04:16 10° SSE 13:06:02 14° SE 13:07:47 10° E daylight
21 Aug - 14:39:14 10° WSW 14:42:26 46° NW 14:45:40 10° NE daylight
21 Aug - 21:10:22 10° NW 21:13:38 50° NE 21:16:53 10° ESE visible
21 Aug - 22:48:28 10° W 22:50:01 13° SW 22:51:35 10° SSW visible
22 Aug - 13:50:36 10° SW 13:53:54 90° NW 13:57:14 10° NE daylight
22 Aug - 15:29:23 10° NW 15:31:03 13° NNW 15:32:43 10° N daylight
22 Aug - 20:22:04 10° NNW 20:25:02 29° NE 20:27:59 10° E visible
22 Aug - 21:58:56 10° WNW 22:01:40 24° SW 22:04:24 10° S visible
23 Aug - 13:02:14 10° SSW 13:05:25 44° SE 13:08:36 10° ENE daylight
23 Aug - 14:39:50 10° WNW 14:42:18 19° NNW 14:44:45 10° NNE daylight
23 Aug - 19:33:53 10° NNW 19:36:20 19° NNE 19:38:47 10° ENE daylight
23 Aug - 21:10:01 10° WNW 21:13:14 45° SW 21:16:25 10° SSE visible
24 Aug - 12:14:17 10° S 12:16:58 23° SE 12:19:40 10° ENE daylight
24 Aug - 13:50:38 10° W 13:53:35 29° NW 13:56:33 10° NNE daylight
24 Aug - 18:45:54 10° N 18:47:33 13° NNE 18:49:12 10° NE daylight
24 Aug - 20:21:22 10° NW 20:24:42 88° NE 20:28:02 10° SE visible
25 Aug - 11:27:06 10° SSE 11:28:33 12° SE 11:30:01 10° E daylight
25 Aug - 13:01:41 10° WSW 13:04:56 51° NW 13:08:11 10° NE daylight
25 Aug - 19:32:52 10° NW 19:36:06 46° NE 19:39:19 10° ESE daylight
25 Aug - 21:10:41 10° W 21:12:31 14° SW 21:14:21 10° SSW visible
26 Aug - 12:13:01 10° SW 12:16:19 81° SE 12:19:39 10° NE daylight
26 Aug - 13:51:36 10° WNW 13:53:25 14° NNW 13:55:14 10° N daylight
26 Aug - 18:44:30 10° NNW 18:47:24 27° NE 18:50:17 10° E daylight
26 Aug - 20:21:14 10° WNW 20:24:04 26° SW 20:26:54 10° S visible
27 Aug - 11:24:38 10° SSW 11:27:46 40° SE 11:30:54 10° ENE daylight
27 Aug - 13:02:02 10° W 13:04:36 20° NNW 13:07:09 10° NNE daylight
27 Aug - 17:56:16 10° NNW 17:58:37 18° NNE 18:00:57 10° ENE daylight
27 Aug - 19:32:18 10° WNW 19:35:33 51° SW 19:38:46 10° SSE daylight
28 Aug - 10:36:41 10° S 10:39:15 21° SE 10:41:49 10° E daylight
28 Aug - 12:12:48 10° W 12:15:49 32° NW 12:18:51 10° NNE daylight
28 Aug - 17:08:17 10° N 17:09:45 12° NNE 17:11:11 10° NE daylight
28 Aug - 18:43:36 10° NW 18:46:56 79° NE 18:50:15 10° SE daylight
29 Aug - 09:49:45 10° SE 09:50:46 11° SE 09:51:46 10° ESE daylight
29 Aug - 11:23:49 10° WSW 11:27:05 57° NW 11:30:22 10° NE daylight
29 Aug - 13:03:44 10° NW 13:04:24 10° NNW 13:05:05 10° N daylight
29 Aug - 17:55:03 10° NW 17:58:14 41° NE 18:01:24 10° ESE daylight
29 Aug - 19:32:37 10° W 19:34:41 16° SW 19:36:46 10° SSW daylight
